Weather History for KANJ - January, 2013

Change the Weather History Date:

Sunday, January 20, 2013

  Actual Average Record
Temperature  
Mean Temperature 14 °F 15 °F  
Max Temperature 26 °F 23 °F 46 °F (1908)
Min Temperature 1 °F 7 °F -23 °F (1984)
Degree Days  
Heating Degree Days 51 50  
Month to date heating degree days 823 988  
Since 1 July heating degree days 3790 4247  
Moisture  
Dew Point 0 °F    
Average Humidity 73    
Maximum Humidity 83    
Minimum Humidity 62    
Precipitation  
Precipitation 0.17 in 0.07 in 0.85 in (1894)
Month to date precipitation 2.15 1.49  
Year to date precipitation 2.15 1.49  
Snow  
Snow 2.90 in 1.00 in 6.20 in (1988)
Month to date snowfall 25.0 20.9  
Since 1 July snowfall 77.0 71.1  
Snow Depth 15.00 in    
Sea Level Pressure  
Sea Level Pressure 29.94 in    
Wind  
Wind Speed 10 mph (North)    
Max Wind Speed 26 mph    
Max Gust Speed 35 mph    
Visibility 3 miles    
Events Fog , Snow    
T = Trace of Precipitation, MM = Missing Value Source: NWS Daily Summary

Daily Weather History Graph

Daily Weather History Graph

Search for Another Location

Airport or City:

Trip Planner

Search our weather history database for the weather conditions in past years. The results will help you decide how hot, cold, wet, or windy it might be!

Date:

Astronomy

Jan. 20, 2013 Rise Set
Actual Time 8:13 AM EST 5:24 PM EST
Civil Twilight 7:39 AM EST 5:57 PM EST
Nautical Twilight 7:02 AM EST 6:34 PM EST
Astronomical Twilight 6:26 AM EST 7:10 PM EST
Moon 12:26 PM EST (1/20) 2:42 AM EST (1/20)
Length of Visible Light 10h 17m
Length of Day
9h 11m
Waxing Gibbous, 66% of the Moon is Illuminated
Jan 20
Waxing Gibbous
Jan 26
Full
Feb 3
Last Quarter
Feb 10
New
Feb 17
First Quarter

Hourly Weather History & Observations

Time (EST) Temp. Windchill Dew Point Humidity Pressure Visibility Wind Dir Wind Speed Gust Speed Precip Events Conditions
12:55 AM 25.0 °F 13.1 °F 18.0 °F 75% 29.36 in 4.0 mi West 13.8 mph - 0.00 in Snow Light Snow
1:07 AM 25.0 °F 12.6 °F 19.0 °F 78% 29.33 in 3.0 mi West 15.0 mph 24.2 mph 0.00 in Snow Light Snow
1:55 AM 21.0 °F 5.7 °F 15.1 °F 78% 29.43 in 1.8 mi WNW 19.6 mph 29.9 mph 0.00 in Snow Light Snow
2:17 AM 17.1 °F -1.7 °F 9.0 °F 71% 29.43 in 3.0 mi WNW 26.5 mph 33.4 mph 0.00 in Snow Light Snow
2:36 AM 16.0 °F -1.3 °F 8.1 °F 71% 29.45 in 2.0 mi NW 20.7 mph 34.5 mph 0.00 in Snow Light Snow
2:55 AM 12.9 °F -4.4 °F 5.0 °F 71% 29.53 in 2.5 mi NNW 18.4 mph 28.8 mph 0.00 in Snow Light Snow
3:03 AM 12.0 °F -3.4 °F 3.9 °F 70% 29.51 in 3.0 mi NNW 13.8 mph 28.8 mph 0.00 in Snow Light Snow
3:55 AM 8.1 °F -8.4 °F -0.0 °F 70% 29.62 in 5.0 mi NNW 13.8 mph 26.5 mph 0.00 in   Overcast
4:44 AM 5.0 °F -11.6 °F -2.9 °F 70% 29.65 in 10.0 mi NNW 12.7 mph 20.7 mph 0.00 in   Partly Cloudy
4:55 AM 5.0 °F -13.6 °F -4.0 °F 66% 29.70 in 10.0 mi NNW 16.1 mph 21.9 mph 0.00 in   Partly Cloudy
5:55 AM 3.0 °F -12.5 °F -7.1 °F 63% 29.79 in 10.0 mi NNW 10.4 mph 24.2 mph N/A   Clear
6:55 AM 3.0 °F -14.8 °F -6.0 °F 66% 29.85 in 10.0 mi NW 13.8 mph 23.0 mph N/A   Clear
7:55 AM 1.9 °F -15.5 °F -7.1 °F 66% 29.91 in 10.0 mi NNW 12.7 mph 20.7 mph N/A   Clear
8:55 AM 3.0 °F -12.5 °F -4.0 °F 73% 29.95 in 7.0 mi North 10.4 mph - 0.00 in   Mostly Cloudy
9:12 AM 3.0 °F -11.5 °F -4.0 °F 73% 29.92 in 8.0 mi North 9.2 mph - 0.00 in   Overcast
9:47 AM 3.9 °F -10.4 °F -4.0 °F 70% 29.96 in 10.0 mi North 9.2 mph - 0.00 in   Mostly Cloudy
9:55 AM 3.9 °F -9.4 °F -4.0 °F 70% 30.01 in 10.0 mi North 8.1 mph - 0.00 in   Scattered Clouds
10:55 AM 5.0 °F -10.8 °F -4.0 °F 66% 30.03 in 10.0 mi North 11.5 mph 16.1 mph 0.00 in   Partly Cloudy
11:55 AM 6.1 °F -8.7 °F -4.0 °F 63% 30.04 in 10.0 mi NNW 10.4 mph - 0.00 in   Mostly Cloudy
12:55 PM 8.1 °F -5.3 °F -2.0 °F 64% 30.04 in 5.0 mi NNW 9.2 mph - 0.00 in   Haze
1:05 PM 6.1 °F -9.5 °F -2.9 °F 67% 30.00 in 2.0 mi NW 11.5 mph - 0.00 in Snow Light Snow
1:16 PM 7.0 °F -6.6 °F -2.0 °F 67% 30.00 in 5.0 mi NW 9.2 mph - 0.00 in   Overcast
1:55 PM 8.1 °F -7.0 °F -0.9 °F 67% 30.03 in 3.0 mi NW 11.5 mph - 0.00 in Snow Light Snow
2:05 PM 7.0 °F -8.3 °F -0.9 °F 70% 29.99 in 2.0 mi NW 11.5 mph - 0.00 in Snow Light Snow
2:15 PM 7.0 °F -8.3 °F -2.0 °F 67% 29.99 in 4.0 mi NW 11.5 mph - 0.00 in   Overcast
2:35 PM 7.0 °F -7.5 °F -0.9 °F 70% 30.00 in 1.8 mi NNW 10.4 mph - 0.00 in Snow Light Snow
2:55 PM 7.0 °F -8.3 °F -0.0 °F 73% 30.05 in 2.0 mi NW 11.5 mph - 0.00 in Snow Light Snow
3:11 PM 8.1 °F -5.3 °F 1.0 °F 73% 30.01 in 1.2 mi NNW 9.2 mph - 0.00 in Snow Light Snow
3:55 PM 8.1 °F -6.2 °F 1.0 °F 73% 30.06 in 1.0 mi NNW 10.4 mph - 0.00 in Snow Light Snow
4:23 PM 9.0 °F -4.2 °F 1.9 °F 73% 30.02 in 0.8 mi NW 9.2 mph - 0.01 in Snow Light Snow
4:30 PM 9.0 °F -5.1 °F 1.9 °F 73% 30.02 in 1.2 mi North 10.4 mph - 0.01 in Snow Light Snow
4:55 PM 8.1 °F -3.2 °F 3.0 °F 80% 30.08 in 1.2 mi North 6.9 mph - 0.01 in Snow Light Snow
5:19 PM 8.1 °F -2.0 °F 1.9 °F 76% 30.04 in 0.5 mi North 5.8 mph - 0.01 in Snow Snow
5:30 PM 8.1 °F -2.0 °F 3.0 °F 80% 30.04 in 0.5 mi NNE 5.8 mph - 0.01 in Snow Snow
5:47 PM 7.0 °F -3.3 °F 1.0 °F 77% 30.04 in 1.0 mi NE 5.8 mph - 0.02 in Snow Light Snow
5:50 PM 6.8 °F -2.0 °F 1.4 °F 79% 30.04 in 0.8 mi NE 4.6 mph - 0.02 in Snow Light Snow
5:55 PM 7.0 °F -3.3 °F 1.0 °F 77% 30.09 in 0.5 mi NE 5.8 mph - 0.03 in Snow Snow
6:13 PM 7.0 °F -3.3 °F 1.0 °F 77% 30.04 in 1.5 mi NNE 5.8 mph - 0.01 in Snow Light Snow
6:22 PM 6.1 °F -5.6 °F 1.0 °F 80% 30.05 in 0.5 mi NNE 6.9 mph - 0.02 in Snow Snow
6:45 PM 6.1 °F -4.3 °F -0.0 °F 76% 30.04 in 1.8 mi NNE 5.8 mph - 0.03 in Snow Light Snow
6:55 PM 6.1 °F -4.3 °F -0.0 °F 76% 30.09 in 1.2 mi North 5.8 mph - 0.03 in Snow Light Snow
7:02 PM 6.1 °F -0.9 °F -0.0 °F 76% 30.04 in 1.8 mi NNE 3.5 mph - 0.00 in Snow Light Snow
7:07 PM 6.1 °F -0.9 °F -0.0 °F 76% 30.04 in 3.0 mi NE 3.5 mph - 0.00 in Snow Light Snow
7:15 PM 6.1 °F -0.9 °F -0.0 °F 76% 30.04 in 2.0 mi NNE 3.5 mph - 0.00 in Snow Light Snow
7:22 PM 6.1 °F -2.8 °F -0.0 °F 76% 30.04 in 1.2 mi NNE 4.6 mph - 0.00 in Snow Light Snow
7:55 PM 6.1 °F - -0.9 °F 73% 30.11 in 2.5 mi Calm Calm - 0.01 in Snow Light Snow
8:08 PM 6.1 °F - -0.9 °F 73% 30.05 in 1.5 mi Calm Calm - 0.00 in Snow Light Snow
8:38 PM 5.0 °F -4.1 °F 1.0 °F 84% 30.04 in 1.0 mi SSW 4.6 mph - 0.01 in Snow Light Snow
8:52 PM 6.8 °F - 1.4 °F 79% 30.04 in 0.8 mi Calm Calm - 0.02 in Snow Light Snow
8:55 PM 6.1 °F - 1.9 °F 83% 30.09 in 0.5 mi Calm Calm - 0.02 in Fog , Snow Snow
9:20 PM 5.0 °F -2.1 °F -0.0 °F 80% 30.04 in 1.0 mi ESE 3.5 mph - 0.01 in Snow Light Snow
9:41 PM 5.0 °F -2.1 °F -0.0 °F 80% 30.04 in 0.8 mi ESE 3.5 mph - 0.02 in Snow Light Snow
9:55 PM 5.0 °F -2.1 °F -0.0 °F 80% 30.09 in 1.0 mi ESE 3.5 mph - 0.03 in Snow Light Snow
10:34 PM 3.9 °F -6.9 °F -0.9 °F 80% 30.05 in 1.2 mi East 5.8 mph - 0.01 in Snow Light Snow
10:55 PM 3.0 °F -6.4 °F -2.0 °F 80% 30.09 in 1.8 mi East 4.6 mph - 0.01 in Snow Light Snow
11:04 PM 3.0 °F -6.4 °F -2.0 °F 80% 30.03 in 2.5 mi East 4.6 mph - 0.00 in   Haze
11:18 PM 1.9 °F -5.6 °F -2.0 °F 83% 30.03 in 3.0 mi East 3.5 mph - 0.00 in   Overcast
11:55 PM 1.0 °F -8.7 °F -4.0 °F 79% 30.08 in 4.0 mi East 4.6 mph - 0.00 in   Haze